When you browse on this site, cookies collect data to enhance your experience and personalize the content and advertising you see.
Visit our Privacy Policy to learn more. By continuing to use the site, you agree to this use of cookies and data.
  • en France
  • Liste des pays
  • À 7 jours
  • Température de l'eau
  • Carte satellitaire
  • Carte météo
  • Widgets météo
  • user-avatar
    Se connecter

    Météo par heure à Irganay

    Ce jour, 11 Décembre, Mardi

    Heure Température Précipitation Vent Pression Humidité
    00:00 +6°C° 0 mm 2 m/s 708 mmHg 61%
    01:00 +6°C° 0 mm 2 m/s 708 mmHg 59%
    02:00 +6°C° 0 mm 2 m/s 708 mmHg 58%
    03:00 +6°C° 0 mm 2 m/s 708 mmHg 57%
    04:00 +6°C° 0 mm 2 m/s 708 mmHg 57%
    05:00 +6°C° 0 mm 2 m/s 708 mmHg 57%
    06:00 +6°C° 0 mm 2 m/s 708 mmHg 56%
    07:00 +7°C° 0 mm 2 m/s 708 mmHg 54%
    08:00 +8°C° 0 mm 2 m/s 708 mmHg 53%
    09:00 +9°C° 0 mm 2 m/s 708 mmHg 51%
    10:00 +12°C° 0 mm 2 m/s 708 mmHg 49%
    11:00 +13°C° 0 mm 2 m/s 708 mmHg 47%
    12:00 +15°C° 0 mm 2 m/s 707 mmHg 46%
    13:00 +14°C° 0 mm 2 m/s 707 mmHg 48%
    14:00 +14°C° 0 mm 2 m/s 707 mmHg 51%
    15:00 +13°C° 0 mm 3 m/s 706 mmHg 53%
    16:00 +12°C° 0 mm 3 m/s 706 mmHg 55%
    17:00 +11°C° 0 mm 3 m/s 706 mmHg 57%
    18:00 +10°C° 0 mm 4 m/s 706 mmHg 59%
    19:00 +10°C° 0 mm 4 m/s 705 mmHg 59%
    20:00 +10°C° 0 mm 4 m/s 705 mmHg 59%
    21:00 +10°C° 0 mm 4 m/s 705 mmHg 58%
    22:00 +10°C° 0 mm 4 m/s 705 mmHg 59%
    23:00 +10°C° 0 mm 4 m/s 705 mmHg 60%

    Demain, 12 Décembre, Mercredi

    Heure Température Précipitation Vent Pression Humidité
    00:00 +8°C° 0 mm 4 m/s 705 mmHg 61%
    01:00 +8°C° 0 mm 4 m/s 706 mmHg 61%
    02:00 +8°C° 0 mm 4 m/s 707 mmHg 60%
    03:00 +7°C° 0 mm 4 m/s 707 mmHg 60%
    04:00 +7°C° 0 mm 4 m/s 708 mmHg 62%
    05:00 +8°C° 0 mm 3 m/s 709 mmHg 63%
    06:00 +8°C° 0 mm 3 m/s 709 mmHg 65%
    07:00 +8°C° 0 mm 3 m/s 709 mmHg 63%
    08:00 +9°C° 0 mm 2 m/s 710 mmHg 60%
    09:00 +9°C° 0 mm 2 m/s 710 mmHg 57%
    10:00 +10°C° 0 mm 2 m/s 710 mmHg 55%
    11:00 +12°C° 0 mm 2 m/s 709 mmHg 52%
    12:00 +12°C° 0 mm 2 m/s 709 mmHg 50%
    13:00 +12°C° 0.1 mm 2 m/s 709 mmHg 55%
    14:00 +10°C° 0.1 mm 2 m/s 709 mmHg 59%
    15:00 +10°C° 0.1 mm 2 m/s 708 mmHg 64%
    16:00 +9°C° 0.1 mm 2 m/s 708 mmHg 68%
    17:00 +8°C° 0.1 mm 2 m/s 708 mmHg 71%
    18:00 +8°C° 0.1 mm 2 m/s 708 mmHg 74%
    19:00 +8°C° 0.1 mm 2 m/s 708 mmHg 75%
    20:00 +8°C° 0.1 mm 2 m/s 708 mmHg 76%
    21:00 +8°C° 0.1 mm 1 m/s 707 mmHg 77%
    22:00 +8°C° 0.1 mm 1 m/s 707 mmHg 78%
    23:00 +8°C° 0.1 mm 1 m/s 707 mmHg 79%

    Après-demain, 13 Décembre, Jeudi

    Heure Température Précipitation Vent Pression Humidité
    00:00 +8°C° 0.1 mm 1 m/s 707 mmHg 80%
    01:00 +7°C° 0.1 mm 2 m/s 707 mmHg 80%
    02:00 +7°C° 0.1 mm 2 m/s 707 mmHg 80%
    03:00 +7°C° 0.1 mm 2 m/s 707 mmHg 79%
    04:00 +7°C° 0 mm 2 m/s 707 mmHg 80%
    05:00 +6°C° 0 mm 2 m/s 707 mmHg 81%
    06:00 +6°C° 0 mm 2 m/s 707 mmHg 82%
    07:00 +5°C° 0 mm 3 m/s 707 mmHg 81%
    08:00 +5°C° 0 mm 3 m/s 708 mmHg 79%
    09:00 +5°C° 0 mm 3 m/s 708 mmHg 78%
    10:00 +6°C° 0.1 mm 4 m/s 709 mmHg 75%
    11:00 +7°C° 0.1 mm 4 m/s 709 mmHg 72%
    12:00 +7°C° 0.1 mm 5 m/s 709 mmHg 70%
    13:00 +7°C° 0.1 mm 5 m/s 710 mmHg 70%
    14:00 +7°C° 0.1 mm 5 m/s 711 mmHg 71%
    15:00 +6°C° 0.1 mm 5 m/s 711 mmHg 72%
    16:00 +5°C° 0.1 mm 5 m/s 712 mmHg 75%
    17:00 +5°C° 0.1 mm 4 m/s 713 mmHg 79%
    18:00 +4°C° 0.1 mm 4 m/s 713 mmHg 82%
    19:00 +3°C° 0 mm 4 m/s 714 mmHg 82%
    20:00 +3°C° 0 mm 3 m/s 714 mmHg 82%
    21:00 +3°C° 0 mm 3 m/s 715 mmHg 81%
    22:00 +3°C° 0 mm 3 m/s 715 mmHg 80%
    23:00 +2°C° 0 mm 3 m/s 715 mmHg 78%

    14 Décembre, Vendredi

    Heure Température Précipitation Vent Pression Humidité
    00:00 +2°C° 0 mm 3 m/s 715 mmHg 77%
    01:00 +2°C° 0 mm 3 m/s 716 mmHg 76%
    02:00 +2°C° 0 mm 3 m/s 716 mmHg 76%
    03:00 +3°C° 0 mm 2 m/s 716 mmHg 76%
    04:00 +2°C° 0 mm 2 m/s 717 mmHg 76%
    05:00 +2°C° 0 mm 2 m/s 717 mmHg 75%
    06:00 +2°C° 0 mm 2 m/s 717 mmHg 75%
    07:00 +3°C° 0 mm 2 m/s 717 mmHg 71%
    08:00 +3°C° 0 mm 2 m/s 718 mmHg 67%
    09:00 +4°C° 0 mm 2 m/s 718 mmHg 63%
    10:00 +5°C° 0 mm 2 m/s 718 mmHg 61%
    11:00 +5°C° 0 mm 2 m/s 717 mmHg 58%
    12:00 +6°C° 0 mm 2 m/s 717 mmHg 56%
    13:00 +6°C° 0 mm 2 m/s 717 mmHg 59%
    14:00 +6°C° 0 mm 2 m/s 716 mmHg 62%
    15:00 +5°C° 0 mm 2 m/s 716 mmHg 65%
    16:00 +5°C° 0 mm 2 m/s 716 mmHg 69%
    17:00 +4°C° 0 mm 2 m/s 716 mmHg 72%
    18:00 +3°C° 0 mm 2 m/s 716 mmHg 76%
    19:00 +3°C° 0 mm 2 m/s 716 mmHg 76%
    20:00 +3°C° 0 mm 2 m/s 716 mmHg 76%
    21:00 +3°C° 0 mm 2 m/s 716 mmHg 76%
    22:00 +3°C° 0 mm 2 m/s 716 mmHg 76%
    23:00 +3°C° 0 mm 2 m/s 715 mmHg 76%

    15 Décembre, Samedi

    Heure Température Précipitation Vent Pression Humidité
    00:00 +4°C° 0 mm 1 m/s 715 mmHg 76%
    01:00 +4°C° 0 mm 1 m/s 715 mmHg 78%
    02:00 +4°C° 0 mm 1 m/s 715 mmHg 79%
    03:00 +4°C° 0 mm 1 m/s 715 mmHg 81%
    04:00 +4°C° 0 mm 1 m/s 715 mmHg 82%
    05:00 +3°C° 0 mm 1 m/s 716 mmHg 84%
    06:00 +3°C° 0 mm 1 m/s 716 mmHg 85%
    07:00 +4°C° 0 mm 1 m/s 716 mmHg 82%
    08:00 +4°C° 0 mm 1 m/s 717 mmHg 79%
    09:00 +5°C° 0 mm 1 m/s 717 mmHg 76%
    10:00 +6°C° 0 mm 1 m/s 717 mmHg 74%
    11:00 +7°C° 0 mm 1 m/s 717 mmHg 73%
    12:00 +6°C° 0 mm 2 m/s 717 mmHg 71%
    13:00 +7°C° 0 mm 1 m/s 717 mmHg 74%
    14:00 +7°C° 0 mm 1 m/s 718 mmHg 77%
    15:00 +6°C° 0 mm 1 m/s 718 mmHg 80%
    16:00 +6°C° 0 mm 1 m/s 718 mmHg 83%
    17:00 +5°C° 0 mm 1 m/s 719 mmHg 86%
    18:00 +5°C° 0 mm 1 m/s 719 mmHg 89%
    19:00 +4°C° 0 mm 1 m/s 720 mmHg 88%
    20:00 +4°C° 0 mm 1 m/s 720 mmHg 87%
    21:00 +4°C° 0 mm 1 m/s 720 mmHg 87%
    22:00 +4°C° 0 mm 1 m/s 720 mmHg 85%
    23:00 +4°C° 0 mm 1 m/s 720 mmHg 84%

    16 Décembre, Dimanche

    Heure Température Précipitation Vent Pression Humidité
    00:00 +4°C° 0 mm 1 m/s 720 mmHg 83%
    01:00 +4°C° 0 mm 1 m/s 720 mmHg 82%
    02:00 +4°C° 0 mm 1 m/s 720 mmHg 81%
    03:00 +4°C° 0 mm 1 m/s 721 mmHg 81%
    04:00 +3°C° 0 mm 1 m/s 721 mmHg 80%
    05:00 +3°C° 0 mm 1 m/s 721 mmHg 80%
    06:00 +3°C° 0 mm 1 m/s 721 mmHg 79%
    07:00 +4°C° 0 mm 1 m/s 721 mmHg 76%
    08:00 +5°C° 0 mm 1 m/s 721 mmHg 73%
    09:00 +5°C° 0 mm 2 m/s 721 mmHg 70%
    10:00 +6°C° 0 mm 2 m/s 721 mmHg 68%
    11:00 +6°C° 0 mm 2 m/s 721 mmHg 65%
    12:00 +7°C° 0 mm 2 m/s 720 mmHg 63%
    13:00 +7°C° 0 mm 2 m/s 720 mmHg 66%
    14:00 +7°C° 0 mm 2 m/s 720 mmHg 69%
    15:00 +7°C° 0 mm 2 m/s 719 mmHg 72%
    16:00 +6°C° 0 mm 2 m/s 719 mmHg 75%
    17:00 +5°C° 0 mm 2 m/s 719 mmHg 78%
    18:00 +4°C° 0 mm 2 m/s 719 mmHg 81%
    19:00 +4°C° 0 mm 2 m/s 719 mmHg 80%
    20:00 +4°C° 0 mm 2 m/s 719 mmHg 78%
    21:00 +4°C° 0 mm 2 m/s 719 mmHg 76%
    22:00 +4°C° 0 mm 2 m/s 718 mmHg 76%
    23:00 +4°C° 0 mm 2 m/s 718 mmHg 75%
    Voir plus